This demonstration page uses our WeatherBlox Daily Observations layout. Learn more.

40.92945, -100.16068

Hourly Observations for July 7, 2020

Temp ( °F °C ) Dew Point ( °F °C ) Humidity (%) Winds ( mph kmh ) Pressure ( in mb ) Visibility ( mi km ) Precip ( " mm )
12:15 am 00:15 Clear 75 23.8 67 19.4 76 76 SE 10 17 29.94 1014 10 16.0934 0 0
12:35 am 00:35 Clear 74 23.3 67 19.5 79 79 SSE 9 15 29.93 1014 10 16.0934 0 0
12:55 am 00:55 Clear 73 22.7 67 19.5 82 82 SSE 12 19 29.93 1014 10 16.0934 0 0
1:15 am 01:15 Clear 73 23 66 19.1 79 79 S 12 19 29.93 1013 10 16.0934 0 0
1:35 am 01:35 Clear 73 23 67 19.2 79 79 S 8 13 29.93 1013 10 16.0934 0 0
1:55 am 01:55 Clear 73 22.8 67 19.3 81 81 S 9 15 29.91 1013 10 16.0934 0 0
2:15 am 02:15 Clear 73 22.5 67 19.3 82 82 S 10 17 29.89 1012 10 16.0934 0 0
2:35 am 02:35 Clear 73 23 67 19.3 80 80 S 15 24 29.88 1012 10 16.0934 0 0
2:55 am 02:55 Clear 73 22.8 67 19.2 80 80 SE 7 11 29.89 1012 10 16.0934 0 0
3:15 am 03:15 Clear 73 22.7 66 19.1 80 80 SE 9 15 29.88 1012 10 16.0934 0 0
3:35 am 03:35 Clear 73 22.5 66 19 81 81 SSE 7 11 29.88 1012 10 16.0934 0 0
3:55 am 03:55 Clear 72 22 65 18.6 81 81 S 10 17 29.88 1012 10 16.0934 0 0
4:15 am 04:15 Clear 71 21.7 65 18.3 81 81 S 12 19 29.88 1012 10 16.0934 0 0
4:35 am 04:35 Clear 71 21.5 65 18.3 82 82 S 8 13 29.88 1012 10 16.0934 0 0
4:55 am 04:55 Clear 71 21.7 65 18.3 81 81 S 9 15 29.89 1012 10 16.0934 0 0
5:15 am 05:15 Clear 71 21.6 65 18.3 82 82 SSE 3 6 29.91 1013 10 16.0934 0 0
5:35 am 05:35 Clear 70 20.9 65 18.3 85 85 NE 8 13 29.94 1014 10 16.0934 0 0
5:55 am 05:55 Clear 69 20.7 65 18.5 87 87 NNE 9 15 29.97 1015 10 16.0934 0 0
6:15 am 06:15 Clear 69 20.6 65 18.5 88 88 ENE 7 11 29.98 1015 10 16.0934 0 0
6:35 am 06:35 Partly Cloudy 71 21.6 65 18.4 82 82 ENE 8 13 29.97 1015 10 16.0934 0 0
6:55 am 06:55 Mostly Cloudy 71 21.9 66 18.9 83 83 ENE 12 19 29.96 1014 10 16.0934 0 0
7:15 am 07:15 Partly Cloudy 70 21.1 65 18.2 84 84 E 15 24 29.95 1014 10 16.0934 0 0
7:35 am 07:35 Sunny 70 21.2 64 18 82 82 E 16 26 29.95 1014 10 16.0934 0 0
7:55 am 07:55 Sunny 71 21.7 65 18.4 82 82 E 15 24 29.95 1014 10 16.0934 0 0
8:15 am 08:15 Sunny 72 22.4 65 18.5 79 79 E 14 22 29.94 1014 10 16.0934 0 0
8:35 am 08:35 Sunny 73 23 65 18.3 75 75 ESE 14 22 29.94 1014 10 16.0934 0 0
8:55 am 08:55 Sunny 75 23.9 66 18.7 73 73 ESE 16 26 29.93 1014 10 16.0934 0 0
9:15 am 09:15 Sunny 76 24.4 66 19.1 72 72 ESE 17 28 29.92 1013 10 16.0934 0 0
9:35 am 09:35 Sunny 76 24.7 67 19.4 72 72 ESE 14 22 29.91 1013 10 16.0934 0 0
9:55 am 09:55 Partly Cloudy 78 25.8 67 19.6 69 69 SE 17 28 29.9 1013 10 16.0934 0 0
10:15 am 10:15 Sunny 79 26 67 19.5 67 67 ESE 13 20 29.9 1013 10 16.0934 0 0
10:35 am 10:35 Sunny 80 26.9 67 19.7 65 65 SE 14 22 29.89 1012 10 16.0934 0 0
10:55 am 10:55 Sunny 83 28.4 68 20.2 61 61 SE 15 24 29.87 1012 10 16.0934 0 0
11:15 am 11:15 Partly Cloudy 82 27.9 68 20 62 62 SSE 14 22 29.88 1012 10 16.0934 0 0
11:35 am 11:35 Partly Cloudy 83 28.6 68 20 60 60 SSE 15 24 29.86 1011 10 16.0934 0 0
11:55 am 11:55 Sunny 84 29.1 68 20.2 59 59 SSE 16 26 29.85 1011 10 16.0934 0 0
12:15 pm 12:15 Sunny 85 29.6 69 20.4 58 58 SSE 17 28 29.83 1010 10 16.0934 0 0
12:35 pm 12:35 Sunny 86 30.1 69 20.5 56 56 SE 14 22 29.83 1010 10 16.0934 0 0
12:55 pm 12:55 Sunny 88 30.9 68 20.2 53 53 SSE 20 31 29.81 1010 10 16.0934 0 0
1:15 pm 13:15 Sunny 89 31.6 69 20.3 51 51 SSE 17 28 29.8 1009 10 16.0934 0 0
1:35 pm 13:35 Sunny 90 32 68 20.1 49 49 SSE 18 30 29.78 1009 10 16.0934 0 0
1:55 pm 13:55 Sunny 90 32.4 68 19.9 48 48 SSE 17 28 29.77 1008 10 16.0934 0 0
2:15 pm 14:15 Sunny 91 32.7 67 19.6 46 46 S 16 26 29.76 1008 10 16.0934 0 0
2:35 pm 14:35 Sunny 92 33.3 67 19.7 45 45 S 22 35 29.74 1007 10 16.0934 0 0
2:55 pm 14:55 Sunny 92 33.5 68 19.9 45 45 SSE 18 30 29.73 1007 10 16.0934 0 0
3:15 pm 15:15 Sunny 93 33.8 68 19.9 44 44 S 21 33 29.72 1006 10 16.0934 0 0
3:35 pm 15:35 Sunny 93 33.8 67 19.5 43 43 SSE 20 31 29.71 1006 10 16.0934 0 0
3:55 pm 15:55 Sunny 94 34.2 67 19.5 42 42 S 17 28 29.7 1006 10 16.0934 0 0
4:15 pm 16:15 Sunny 95 34.9 64 17.7 36 36 SSE 23 37 29.69 1005 10 16.0934 0 0
4:35 pm 16:35 Sunny 95 34.9 64 17.9 36 36 S 20 31 29.68 1005 10 16.0934 0 0
4:55 pm 16:55 Sunny 94 34.5 64 17.8 37 37 SSE 20 31 29.68 1005 10 16.0934 0 0
5:15 pm 17:15 Sunny 94 34.3 64 17.5 37 37 SSE 21 33 29.68 1005 10 16.0934 0 0
5:35 pm 17:35 Sunny 94 34.4 64 17.5 37 37 S 17 28 29.68 1005 10 16.0934 0 0
5:55 pm 17:55 Sunny 93 33.9 65 18.3 40 40 SSE 22 35 29.67 1005 10 16.0934 0 0
6:15 pm 18:15 Sunny 93 34 64 17.7 38 38 SSE 23 37 29.66 1004 10 16.0934 0 0
6:35 pm 18:35 Sunny 92 33.6 64 17.9 39 39 SSE 21 33 29.66 1004 10 16.0934 0 0
6:55 pm 18:55 Sunny 92 33.1 64 18 41 41 SSE 22 35 29.67 1005 10 16.0934 0 0
7:15 pm 19:15 Sunny 91 32.6 65 18.1 42 42 SSE 18 30 29.67 1005 10 16.0934 0 0
7:35 pm 19:35 Sunny 90 32.1 65 18.1 43 43 SSE 15 24 29.67 1005 10 16.0934 0 0
7:55 pm 19:55 Sunny 89 31.4 65 18.5 46 46 SSE 13 20 29.68 1005 10 16.0934 0 0
8:15 pm 20:15 Sunny 87 30.6 65 18.6 49 49 SSE 13 20 29.69 1005 10 16.0934 0 0
8:35 pm 20:35 Sunny 85 29.7 65 18.6 51 51 SSE 14 22 29.69 1005 10 16.0934 0 0
8:55 pm 20:55 Sunny 83 28.6 65 18.5 54 54 SSE 12 19 29.7 1006 10 16.0934 0 0
9:15 pm 21:15 Clear 82 27.8 65 18.5 57 57 SSE 13 20 29.7 1006 10 16.0934 0 0
9:35 pm 21:35 Clear 82 27.5 65 18.5 58 58 SSE 13 20 29.7 1006 10 16.0934 0 0
9:55 pm 21:55 Clear 81 27 65 18.5 60 60 SSE 13 20 29.7 1006 10 16.0934 0 0
10:15 pm 22:15 Clear 80 26.6 65 18.5 61 61 SSE 14 22 29.72 1006 10 16.0934 0 0
10:35 pm 22:35 Clear 80 26.4 64 18 60 60 SSE 16 26 29.72 1006 10 16.0934 0 0
10:55 pm 22:55 Clear 79 26.2 64 18 61 61 SSE 14 22 29.75 1007 10 16.0934 0 0
11:15 pm 23:15 Clear 79 25.9 64 18 62 62 SSE 10 17 29.76 1008 10 16.0934 0 0
11:35 pm 23:35 Clear 78 25.6 64 18 63 63 SSE 13 20 29.77 1008 10 16.0934 0 0
11:55 pm 23:55 Clear 78 25.4 65 18.1 64 64 SSE 12 19 29.76 1008 10 16.0934 0 0

Powered by AerisWeather